EN

Hourly Weather Labowa

Today, 6 August, Friday

Time Temperature Precipitation Wind Pressure Humidity
00:00 +14°C° 0.5 mm 4 mps 707 mmHg 94%
01:00 +14°C° 0.5 mm 4 mps 707 mmHg 94%
02:00 +14°C° 0.3 mm 4 mps 708 mmHg 94%
03:00 +14°C° 0.3 mm 4 mps 708 mmHg 94%
04:00 +13°C° 0.3 mm 4 mps 708 mmHg 94%
05:00 +13°C° 0.3 mm 4 mps 708 mmHg 94%
06:00 +13°C° 0.3 mm 4 mps 709 mmHg 95%
07:00 +13°C° 0.3 mm 3 mps 710 mmHg 95%
08:00 +13°C° 0.1 mm 4 mps 710 mmHg 94%
09:00 +14°C° 0.1 mm 4 mps 711 mmHg 92%
10:00 +14°C° 0.1 mm 4 mps 711 mmHg 90%
11:00 +15°C° 0.1 mm 4 mps 711 mmHg 81%
12:00 +18°C° 0.1 mm 4 mps 712 mmHg 71%
13:00 +19°C° 0.1 mm 5 mps 712 mmHg 61%
14:00 +20°C° 0 mm 4 mps 712 mmHg 61%
15:00 +20°C° 0 mm 4 mps 712 mmHg 60%
16:00 +20°C° 0 mm 4 mps 712 mmHg 59%
17:00 +19°C° 0 mm 3 mps 712 mmHg 68%
18:00 +17°C° 0 mm 2 mps 712 mmHg 77%
19:00 +15°C° 0 mm 1 mps 712 mmHg 86%
20:00 +15°C° 0 mm 1 mps 713 mmHg 87%
21:00 +14°C° 0 mm 1 mps 713 mmHg 89%
22:00 +14°C° 0 mm 1 mps 713 mmHg 90%
23:00 +13°C° 0 mm 2 mps 713 mmHg 91%

Tomorrow, 7 August, Saturday

Time Temperature Precipitation Wind Pressure Humidity
00:00 +13°C° 0 mm 2 mps 713 mmHg 91%
01:00 +13°C° 0 mm 2 mps 713 mmHg 91%
02:00 +13°C° 0 mm 2 mps 713 mmHg 91%
03:00 +13°C° 0 mm 2 mps 714 mmHg 91%
04:00 +12°C° 0 mm 2 mps 714 mmHg 91%
05:00 +14°C° 0 mm 2 mps 714 mmHg 85%
06:00 +16°C° 0 mm 1 mps 714 mmHg 79%
07:00 +19°C° 0 mm 1 mps 715 mmHg 72%
08:00 +20°C° 0 mm 2 mps 715 mmHg 66%
09:00 +21°C° 0 mm 2 mps 715 mmHg 59%
10:00 +24°C° 0 mm 2 mps 716 mmHg 52%
11:00 +25°C° 0 mm 2 mps 716 mmHg 49%
12:00 +26°C° 0 mm 2 mps 716 mmHg 45%
13:00 +27°C° 0 mm 2 mps 716 mmHg 42%
14:00 +27°C° 0 mm 2 mps 716 mmHg 43%
15:00 +27°C° 0 mm 1 mps 716 mmHg 44%
16:00 +27°C° 0 mm 1 mps 715 mmHg 46%
17:00 +24°C° 0 mm 1 mps 715 mmHg 56%
18:00 +22°C° 0 mm 1 mps 715 mmHg 66%
19:00 +20°C° 0 mm 1 mps 715 mmHg 77%
20:00 +18°C° 0 mm 2 mps 715 mmHg 77%
21:00 +18°C° 0 mm 2 mps 715 mmHg 77%
22:00 +17°C° 0 mm 2 mps 715 mmHg 77%
23:00 +17°C° 0 mm 2 mps 714 mmHg 78%

Day after tomorrow, 8 August, Sunday

Time Temperature Precipitation Wind Pressure Humidity
00:00 +16°C° 0 mm 2 mps 714 mmHg 79%
01:00 +16°C° 0 mm 3 mps 714 mmHg 79%
02:00 +16°C° 0 mm 3 mps 714 mmHg 78%
03:00 +16°C° 0 mm 3 mps 714 mmHg 78%
04:00 +14°C° 0 mm 3 mps 713 mmHg 77%
05:00 +17°C° 0 mm 3 mps 714 mmHg 71%
06:00 +19°C° 0 mm 3 mps 714 mmHg 66%
07:00 +21°C° 0 mm 4 mps 714 mmHg 60%
08:00 +22°C° 0 mm 3 mps 715 mmHg 58%
09:00 +25°C° 0 mm 3 mps 716 mmHg 55%
10:00 +26°C° 0 mm 3 mps 716 mmHg 52%
11:00 +27°C° 0 mm 3 mps 717 mmHg 53%
12:00 +27°C° 0 mm 3 mps 717 mmHg 54%
13:00 +27°C° 0 mm 3 mps 717 mmHg 54%
14:00 +26°C° 0.1 mm 3 mps 717 mmHg 60%
15:00 +25°C° 0.1 mm 2 mps 718 mmHg 65%
16:00 +24°C° 0.1 mm 2 mps 718 mmHg 71%
17:00 +21°C° 0.2 mm 2 mps 718 mmHg 78%
18:00 +21°C° 0.2 mm 1 mps 718 mmHg 85%
19:00 +19°C° 0.2 mm 1 mps 718 mmHg 91%
20:00 +19°C° 0.2 mm 1 mps 719 mmHg 92%
21:00 +18°C° 0.2 mm 1 mps 719 mmHg 93%
22:00 +18°C° 0.2 mm 1 mps 719 mmHg 94%
23:00 +18°C° 0.7 mm 1 mps 719 mmHg 94%

9 August, Monday

Time Temperature Precipitation Wind Pressure Humidity
00:00 +16°C° 0.7 mm 2 mps 720 mmHg 95%
01:00 +16°C° 0.7 mm 2 mps 720 mmHg 96%
02:00 +16°C° 0.3 mm 2 mps 720 mmHg 96%
03:00 +15°C° 0.3 mm 2 mps 720 mmHg 96%
04:00 +13°C° 0.3 mm 3 mps 720 mmHg 97%
05:00 +15°C° 0 mm 2 mps 721 mmHg 94%
06:00 +15°C° 0 mm 2 mps 721 mmHg 92%
07:00 +15°C° 0 mm 1 mps 721 mmHg 90%
08:00 +16°C° 0 mm 1 mps 722 mmHg 83%
09:00 +18°C° 0 mm 2 mps 722 mmHg 76%
10:00 +19°C° 0 mm 2 mps 722 mmHg 69%
11:00 +20°C° 0 mm 2 mps 722 mmHg 65%
12:00 +21°C° 0 mm 2 mps 722 mmHg 62%
13:00 +21°C° 0 mm 2 mps 722 mmHg 59%
14:00 +21°C° 0 mm 2 mps 722 mmHg 60%
15:00 +21°C° 0 mm 2 mps 722 mmHg 61%
16:00 +21°C° 0 mm 2 mps 722 mmHg 62%
17:00 +21°C° 0 mm 1 mps 722 mmHg 71%
18:00 +19°C° 0 mm 1 mps 722 mmHg 80%
19:00 +16°C° 0 mm 1 mps 722 mmHg 90%
20:00 +15°C° 0 mm 1 mps 722 mmHg 91%
21:00 +15°C° 0 mm 1 mps 722 mmHg 92%
22:00 +13°C° 0 mm 0 mps 722 mmHg 93%
23:00 +13°C° 0 mm 0 mps 722 mmHg 93%

10 August, Tuesday

Time Temperature Precipitation Wind Pressure Humidity
00:00 +14°C° 0 mm 1 mps 722 mmHg 93%
01:00 +14°C° 0 mm 1 mps 722 mmHg 93%
02:00 +14°C° 0 mm 1 mps 721 mmHg 93%
03:00 +13°C° 0 mm 1 mps 721 mmHg 92%
04:00 +13°C° 0 mm 1 mps 721 mmHg 92%
05:00 +15°C° 0 mm 1 mps 721 mmHg 87%
06:00 +16°C° 0 mm 1 mps 721 mmHg 81%
07:00 +19°C° 0 mm 1 mps 722 mmHg 76%
08:00 +20°C° 0 mm 1 mps 722 mmHg 70%
09:00 +21°C° 0 mm 1 mps 722 mmHg 64%
10:00 +22°C° 0 mm 1 mps 722 mmHg 58%
11:00 +23°C° 0 mm 1 mps 722 mmHg 56%
12:00 +23°C° 0 mm 1 mps 721 mmHg 54%
13:00 +24°C° 0 mm 2 mps 721 mmHg 53%
14:00 +23°C° 0 mm 2 mps 721 mmHg 55%
15:00 +23°C° 0 mm 2 mps 721 mmHg 57%
16:00 +23°C° 0 mm 2 mps 721 mmHg 59%
17:00 +21°C° 0.3 mm 1 mps 720 mmHg 67%
18:00 +19°C° 0.3 mm 1 mps 720 mmHg 76%
19:00 +18°C° 0.3 mm 1 mps 720 mmHg 84%
20:00 +16°C° 0.4 mm 1 mps 720 mmHg 86%
21:00 +15°C° 0.4 mm 1 mps 720 mmHg 88%
22:00 +15°C° 0.4 mm 1 mps 720 mmHg 90%
23:00 +14°C° 0.2 mm 1 mps 720 mmHg 91%

11 August, Wednesday

Time Temperature Precipitation Wind Pressure Humidity
00:00 +14°C° 0.2 mm 1 mps 720 mmHg 91%
01:00 +14°C° 0.2 mm 1 mps 720 mmHg 91%
02:00 +14°C° 0 mm 1 mps 720 mmHg 91%
03:00 +13°C° 0 mm 1 mps 720 mmHg 92%
04:00 +13°C° 0 mm 1 mps 720 mmHg 92%
05:00 +14°C° 0 mm 1 mps 720 mmHg 89%
06:00 +15°C° 0 mm 1 mps 721 mmHg 85%
07:00 +16°C° 0 mm 2 mps 721 mmHg 82%
08:00 +18°C° 0 mm 2 mps 721 mmHg 74%
09:00 +19°C° 0 mm 2 mps 721 mmHg 65%
10:00 +21°C° 0 mm 2 mps 722 mmHg 57%
11:00 +21°C° 0 mm 2 mps 721 mmHg 54%
12:00 +23°C° 0 mm 2 mps 721 mmHg 51%
13:00 +24°C° 0 mm 3 mps 721 mmHg 48%
14:00 +23°C° 0 mm 2 mps 721 mmHg 50%
15:00 +23°C° 0 mm 2 mps 721 mmHg 52%
16:00 +23°C° 0 mm 2 mps 721 mmHg 55%
17:00 +20°C° 0 mm 2 mps 721 mmHg 64%
18:00 +19°C° 0 mm 1 mps 721 mmHg 72%
19:00 +16°C° 0 mm 1 mps 721 mmHg 81%
20:00 +15°C° 0 mm 1 mps 721 mmHg 83%
21:00 +15°C° 0 mm 1 mps 721 mmHg 84%
22:00 +14°C° 0 mm 1 mps 721 mmHg 86%
23:00 +14°C° 0 mm 1 mps 721 mmHg 86%
Show more